When you browse on this site, cookies collect data to enhance your experience and personalize the content and advertising you see.
Visit our Privacy Policy to learn more. By continuing to use the site, you agree to this use of cookies and data.
  • en Suisse
  • Liste des pays
  • À 7 jours
  • Température de l'eau
  • Carte météo
  • Widgets météo
  • user-avatar
    Se connecter

    Météo par heure à Linz

    Ce jour, 26 Août, Lundi

    Heure Température Précipitation Vent Pression Humidité
    00:00 +20°C° 0.1 mm 1 m/s 737 mmHg 86%
    01:00 +19°C° 0.1 mm 1 m/s 737 mmHg 87%
    02:00 +19°C° 0 mm 1 m/s 737 mmHg 88%
    03:00 +17°C° 0 mm 0 m/s 736 mmHg 89%
    04:00 +16°C° 0 mm 0 m/s 736 mmHg 89%
    05:00 +17°C° 0 mm 0 m/s 736 mmHg 88%
    06:00 +18°C° 0 mm 0 m/s 736 mmHg 86%
    07:00 +19°C° 0 mm 0 m/s 737 mmHg 84%
    08:00 +20°C° 0 mm 0 m/s 737 mmHg 77%
    09:00 +24°C° 0 mm 1 m/s 737 mmHg 71%
    10:00 +26°C° 0 mm 1 m/s 737 mmHg 64%
    11:00 +27°C° 0 mm 1 m/s 736 mmHg 61%
    12:00 +28°C° 0 mm 2 m/s 736 mmHg 58%
    13:00 +29°C° 0 mm 2 m/s 736 mmHg 56%
    14:00 +29°C° 0 mm 2 m/s 736 mmHg 55%
    15:00 +30°C° 0 mm 2 m/s 736 mmHg 55%
    16:00 +30°C° 0 mm 2 m/s 735 mmHg 54%
    17:00 +28°C° 0 mm 2 m/s 735 mmHg 61%
    18:00 +26°C° 0 mm 2 m/s 735 mmHg 67%
    19:00 +24°C° 0 mm 2 m/s 735 mmHg 73%
    20:00 +23°C° 0.1 mm 1 m/s 735 mmHg 76%
    21:00 +22°C° 0.1 mm 1 m/s 735 mmHg 79%
    22:00 +21°C° 0.1 mm 1 m/s 736 mmHg 81%
    23:00 +20°C° 0.1 mm 1 m/s 736 mmHg 83%

    Demain, 27 Août, Mardi

    Heure Température Précipitation Vent Pression Humidité
    00:00 +20°C° 0.1 mm 1 m/s 735 mmHg 84%
    01:00 +20°C° 0.1 mm 1 m/s 735 mmHg 85%
    02:00 +19°C° 0 mm 1 m/s 735 mmHg 86%
    03:00 +17°C° 0 mm 0 m/s 735 mmHg 87%
    04:00 +17°C° 0 mm 0 m/s 735 mmHg 88%
    05:00 +17°C° 0 mm 0 m/s 735 mmHg 86%
    06:00 +18°C° 0 mm 0 m/s 736 mmHg 84%
    07:00 +19°C° 0 mm 0 m/s 736 mmHg 82%
    08:00 +21°C° 0 mm 0 m/s 736 mmHg 76%
    09:00 +23°C° 0 mm 0 m/s 736 mmHg 70%
    10:00 +27°C° 0 mm 1 m/s 736 mmHg 63%
    11:00 +28°C° 0 mm 1 m/s 736 mmHg 59%
    12:00 +29°C° 0 mm 1 m/s 736 mmHg 55%
    13:00 +30°C° 0 mm 1 m/s 736 mmHg 51%
    14:00 +30°C° 0 mm 1 m/s 735 mmHg 51%
    15:00 +30°C° 0 mm 1 m/s 735 mmHg 51%
    16:00 +31°C° 0 mm 1 m/s 735 mmHg 51%
    17:00 +28°C° 0.3 mm 1 m/s 735 mmHg 59%
    18:00 +26°C° 0.3 mm 1 m/s 735 mmHg 67%
    19:00 +24°C° 0.3 mm 1 m/s 735 mmHg 75%
    20:00 +23°C° 0 mm 1 m/s 735 mmHg 78%
    21:00 +22°C° 0 mm 1 m/s 735 mmHg 80%
    22:00 +22°C° 0 mm 1 m/s 736 mmHg 83%
    23:00 +21°C° 0 mm 1 m/s 736 mmHg 84%

    Après-demain, 28 Août, Mercredi

    Heure Température Précipitation Vent Pression Humidité
    00:00 +19°C° 0 mm 0 m/s 736 mmHg 85%
    01:00 +18°C° 0 mm 0 m/s 736 mmHg 87%
    02:00 +18°C° 0 mm 0 m/s 735 mmHg 87%
    03:00 +17°C° 0 mm 0 m/s 735 mmHg 88%
    04:00 +17°C° 0 mm 0 m/s 735 mmHg 88%
    05:00 +18°C° 0 mm 0 m/s 735 mmHg 87%
    06:00 +19°C° 0 mm 0 m/s 735 mmHg 85%
    07:00 +19°C° 0 mm 0 m/s 735 mmHg 84%
    08:00 +21°C° 0 mm 0 m/s 735 mmHg 77%
    09:00 +23°C° 0 mm 0 m/s 735 mmHg 70%
    10:00 +28°C° 0 mm 1 m/s 735 mmHg 63%
    11:00 +29°C° 0 mm 1 m/s 735 mmHg 58%
    12:00 +30°C° 0 mm 1 m/s 735 mmHg 54%
    13:00 +31°C° 0 mm 1 m/s 735 mmHg 50%
    14:00 +31°C° 0 mm 1 m/s 734 mmHg 50%
    15:00 +31°C° 0 mm 1 m/s 734 mmHg 50%
    16:00 +31°C° 0 mm 1 m/s 734 mmHg 50%
    17:00 +29°C° 0 mm 1 m/s 734 mmHg 56%
    18:00 +27°C° 0 mm 1 m/s 734 mmHg 63%
    19:00 +25°C° 0 mm 1 m/s 734 mmHg 69%
    20:00 +24°C° 0 mm 1 m/s 734 mmHg 72%
    21:00 +23°C° 0 mm 1 m/s 734 mmHg 75%
    22:00 +23°C° 0 mm 1 m/s 734 mmHg 77%
    23:00 +22°C° 0 mm 1 m/s 734 mmHg 79%

    29 Août, Jeudi

    Heure Température Précipitation Vent Pression Humidité
    00:00 +22°C° 0 mm 1 m/s 734 mmHg 80%
    01:00 +19°C° 0 mm 0 m/s 734 mmHg 81%
    02:00 +19°C° 0 mm 0 m/s 734 mmHg 82%
    03:00 +19°C° 0 mm 0 m/s 734 mmHg 83%
    04:00 +18°C° 0 mm 0 m/s 734 mmHg 84%
    05:00 +21°C° 0.1 mm 1 m/s 734 mmHg 84%
    06:00 +21°C° 0.1 mm 1 m/s 734 mmHg 83%
    07:00 +22°C° 0.1 mm 1 m/s 734 mmHg 83%
    08:00 +23°C° 0.1 mm 1 m/s 734 mmHg 80%
    09:00 +25°C° 0.1 mm 2 m/s 734 mmHg 76%
    10:00 +26°C° 0.1 mm 2 m/s 735 mmHg 73%
    11:00 +26°C° 0.1 mm 2 m/s 735 mmHg 71%
    12:00 +27°C° 0.1 mm 2 m/s 735 mmHg 68%
    13:00 +28°C° 0.1 mm 3 m/s 735 mmHg 66%
    14:00 +28°C° 0.5 mm 2 m/s 734 mmHg 66%
    15:00 +28°C° 0.5 mm 2 m/s 734 mmHg 67%
    16:00 +28°C° 0.5 mm 2 m/s 734 mmHg 67%
    17:00 +26°C° 0.4 mm 2 m/s 735 mmHg 72%
    18:00 +25°C° 0.4 mm 2 m/s 735 mmHg 77%
    19:00 +24°C° 0.4 mm 2 m/s 735 mmHg 81%
    20:00 +23°C° 0.2 mm 2 m/s 735 mmHg 82%
    21:00 +21°C° 0.2 mm 2 m/s 736 mmHg 83%
    22:00 +22°C° 0.2 mm 1 m/s 736 mmHg 84%
    23:00 +21°C° 0.3 mm 1 m/s 736 mmHg 85%

    30 Août, Vendredi

    Heure Température Précipitation Vent Pression Humidité
    00:00 +21°C° 0.3 mm 1 m/s 736 mmHg 86%
    01:00 +21°C° 0.3 mm 1 m/s 736 mmHg 87%
    02:00 +20°C° 0.2 mm 1 m/s 736 mmHg 88%
    03:00 +20°C° 0.2 mm 1 m/s 736 mmHg 90%
    04:00 +20°C° 0.2 mm 1 m/s 736 mmHg 92%
    05:00 +20°C° 0.1 mm 1 m/s 736 mmHg 91%
    06:00 +21°C° 0.1 mm 1 m/s 737 mmHg 91%
    07:00 +21°C° 0.1 mm 1 m/s 737 mmHg 91%
    08:00 +22°C° 0.1 mm 1 m/s 737 mmHg 86%
    09:00 +23°C° 0.1 mm 1 m/s 737 mmHg 82%
    10:00 +24°C° 0.1 mm 1 m/s 737 mmHg 77%
    11:00 +26°C° 0.2 mm 1 m/s 737 mmHg 72%
    12:00 +27°C° 0.2 mm 1 m/s 737 mmHg 67%
    13:00 +28°C° 0.2 mm 1 m/s 737 mmHg 62%
    14:00 +28°C° 0.1 mm 2 m/s 736 mmHg 63%
    15:00 +28°C° 0.1 mm 2 m/s 736 mmHg 64%
    16:00 +28°C° 0.1 mm 2 m/s 736 mmHg 65%
    17:00 +26°C° 0.6 mm 2 m/s 736 mmHg 72%
    18:00 +24°C° 0.6 mm 2 m/s 736 mmHg 78%
    19:00 +23°C° 0.6 mm 2 m/s 736 mmHg 85%
    20:00 +22°C° 0.3 mm 1 m/s 736 mmHg 86%
    21:00 +22°C° 0.3 mm 1 m/s 736 mmHg 86%
    22:00 +21°C° 0.3 mm 1 m/s 736 mmHg 87%
    23:00 +21°C° 0 mm 1 m/s 736 mmHg 89%

    31 Août, Samedi

    Heure Température Précipitation Vent Pression Humidité
    00:00 +20°C° 0 mm 1 m/s 736 mmHg 90%
    01:00 +20°C° 0 mm 1 m/s 736 mmHg 92%
    02:00 +19°C° 0 mm 1 m/s 735 mmHg 92%
    03:00 +19°C° 0 mm 1 m/s 735 mmHg 92%
    04:00 +19°C° 0 mm 1 m/s 735 mmHg 92%
    05:00 +19°C° 0 mm 1 m/s 735 mmHg 91%
    06:00 +20°C° 0 mm 1 m/s 735 mmHg 89%
    07:00 +20°C° 0 mm 1 m/s 735 mmHg 88%
    08:00 +22°C° 0 mm 1 m/s 735 mmHg 82%
    09:00 +24°C° 0 mm 1 m/s 735 mmHg 75%
    10:00 +26°C° 0 mm 2 m/s 735 mmHg 69%
    11:00 +27°C° 0 mm 1 m/s 735 mmHg 65%
    12:00 +28°C° 0 mm 1 m/s 735 mmHg 61%
    13:00 +29°C° 0 mm 1 m/s 735 mmHg 57%
    14:00 +29°C° 0.3 mm 1 m/s 734 mmHg 57%
    15:00 +29°C° 0.3 mm 1 m/s 734 mmHg 58%
    16:00 +29°C° 0.3 mm 1 m/s 734 mmHg 59%
    17:00 +27°C° 0.3 mm 1 m/s 734 mmHg 66%
    18:00 +25°C° 0.3 mm 1 m/s 734 mmHg 72%
    19:00 +23°C° 0.3 mm 1 m/s 734 mmHg 79%
    20:00 +23°C° 0.3 mm 1 m/s 734 mmHg 80%
    21:00 +22°C° 0.3 mm 1 m/s 734 mmHg 81%
    22:00 +22°C° 0.3 mm 1 m/s 734 mmHg 82%
    23:00 +22°C° 0.2 mm 1 m/s 734 mmHg 84%
    Voir plus